| time (UTC) | temp F | wind direction | speed MPH | gust MPH | rain 1hr in | rain 24hr in | rain mn in | humidity % | barometer mb |
| 20260509155337 | 61 | 136 | 5.0 | 11.0 | 0.00 | 0.00 | 0.00 | 35 | 1020.6 |
| 20260509154825 | 62 | 131 | 5.0 | 13.0 | 0.00 | 0.00 | 0.00 | 33 | 1020.6 |
| 20260509154331 | 62 | 142 | 4.0 | 13.0 | 0.00 | 0.00 | 0.00 | 32 | 1020.7 |
| 20260509153831 | 62 | 160 | 4.0 | 7.0 | 0.00 | 0.00 | 0.00 | 32 | 1020.7 |
| 20260509153332 | 62 | 201 | 2.0 | 7.0 | 0.00 | 0.00 | 0.00 | 31 | 1020.8 |
| 20260509152852 | 62 | 242 | 3.0 | 8.0 | 0.00 | 0.00 | 0.00 | 30 | 1021.0 |
| 20260509152339 | 62 | 216 | 5.0 | 11.0 | 0.00 | 0.00 | 0.00 | 32 | 1021.0 |
| 20260509151825 | 63 | 174 | 4.0 | 11.0 | 0.00 | 0.00 | 0.00 | 31 | 1021.0 |
| 20260509151352 | 63 | 130 | 3.0 | 9.0 | 0.00 | 0.00 | 0.00 | 34 | 1021.0 |
| 20260509150828 | 63 | 241 | 3.0 | 9.0 | 0.00 | 0.00 | 0.00 | 29 | 1021.1 |
| 20260509150336 | 63 | 129 | 3.0 | 11.0 | 0.00 | 0.00 | 0.00 | 31 | 1021.1 |
| 20260509145824 | 63 | 153 | 6.0 | 11.0 | 0.00 | 0.00 | 0.00 | 30 | 1021.2 |
| 20260509145331 | 63 | 106 | 4.0 | 8.0 | 0.00 | 0.00 | 0.00 | 31 | 1021.2 |
| 20260509144907 | 63 | 155 | 3.0 | 24.0 | 0.00 | 0.00 | 0.00 | 31 | 1021.3 |
| 20260509144324 | 63 | 137 | 6.0 | 23.0 | 0.00 | 0.00 | 0.00 | 34 | 1021.1 |
| 20260509143824 | 63 | 165 | 3.0 | 11.0 | 0.00 | 0.00 | 0.00 | 29 | 1021.4 |
| 20260509143325 | 63 | 150 | 3.0 | 8.0 | 0.00 | 0.00 | 0.00 | 29 | 1021.4 |
| 20260509142825 | 63 | 166 | 5.0 | 10.0 | 0.00 | 0.00 | 0.00 | 29 | 1021.5 |
| 20260509142333 | 63 | 140 | 5.0 | 10.0 | 0.00 | 0.00 | 0.00 | 31 | 1021.5 |
| 20260509141841 | 64 | 132 | 3.0 | 12.0 | 0.00 | 0.00 | 0.00 | 31 | 1021.6 |
| 20260509141348 | 64 | 106 | 8.0 | 12.0 | 0.00 | 0.00 | 0.00 | 30 | 1021.7 |
| 20260509140827 | 64 | 192 | 3.0 | 7.0 | 0.00 | 0.00 | 0.00 | 30 | 1021.7 |
| 20260509140336 | 64 | 184 | 2.0 | 8.0 | 0.00 | 0.00 | 0.00 | 28 | 1021.8 |
| 20260509135825 | 64 | 168 | 5.0 | 8.0 | 0.00 | 0.00 | 0.00 | 30 | 1021.8 |
| 20260509135326 | 64 | 175 | 3.0 | 6.0 | 0.00 | 0.00 | 0.00 | 28 | 1021.9 |
| 20260509134827 | 64 | 115 | 2.0 | 7.0 | 0.00 | 0.00 | 0.00 | 30 | 1021.9 |
| 20260509134327 | 64 | 109 | 4.0 | 12.0 | 0.00 | 0.00 | 0.00 | 29 | 1022.1 |
| 20260509133836 | 63 | 169 | 6.0 | 12.0 | 0.00 | 0.00 | 0.00 | 27 | 1022.2 |
| 20260509133329 | 63 | 134 | 5.0 | 10.0 | 0.00 | 0.00 | 0.00 | 27 | 1022.2 |
| 20260509132826 | 63 | 140 | 5.0 | 11.0 | 0.00 | 0.00 | 0.00 | 31 | 1022.3 |
| 20260509132345 | 63 | 175 | 7.0 | 12.0 | 0.00 | 0.00 | 0.00 | 28 | 1022.3 |
| 20260509131826 | 64 | 171 | 5.0 | 12.0 | 0.00 | 0.00 | 0.00 | 28 | 1022.4 |
| 20260509131327 | 64 | 145 | 4.0 | 9.0 | 0.00 | 0.00 | 0.00 | 30 | 1022.4 |
| 20260509130826 | 65 | 172 | 4.0 | 9.0 | 0.00 | 0.00 | 0.00 | 27 | 1022.6 |
| 20260509130336 | 65 | 292 | 1.0 | 10.0 | 0.00 | 0.00 | 0.00 | 29 | 1022.5 |
| 20260509125824 | 64 | 345 | 2.0 | 10.0 | 0.00 | 0.00 | 0.00 | 27 | 1022.7 |
| 20260509125324 | 64 | 188 | 1.0 | 10.0 | 0.00 | 0.00 | 0.00 | 28 | 1022.8 |
| 20260509124825 | 64 | 253 | 4.0 | 10.0 | 0.00 | 0.00 | 0.00 | 28 | 1022.9 |
| 20260509124325 | 64 | 134 | 6.0 | 11.0 | 0.00 | 0.00 | 0.00 | 27 | 1022.9 |
| 20260509123846 | 65 | 153 | 6.0 | 11.0 | 0.00 | 0.00 | 0.00 | 27 | 1023.0 |
| 20260509123325 | 65 | 99 | 2.0 | 11.0 | 0.00 | 0.00 | 0.00 | 32 | 1023.0 |
| 20260509122846 | 66 | 182 | 4.0 | 6.0 | 0.00 | 0.00 | 0.00 | 29 | 1023.0 |
| 20260509122325 | 65 | 229 | 1.0 | 5.0 | 0.00 | 0.00 | 0.00 | 27 | 1023.1 |
| 20260509121833 | 65 | 198 | 1.0 | 6.0 | 0.00 | 0.00 | 0.00 | 29 | 1023.2 |
| 20260509121341 | 65 | 169 | 2.0 | 8.0 | 0.00 | 0.00 | 0.00 | 28 | 1023.2 |
| 20260509120851 | 65 | 217 | 2.0 | 8.0 | 0.00 | 0.00 | 0.00 | 26 | 1023.3 |
| 20260509120350 | 65 | 213 | 2.0 | 7.0 | 0.00 | 0.00 | 0.00 | 30 | 1023.4 |
| 20260509115849 | 65 | 142 | 2.0 | 7.0 | 0.00 | 0.00 | 0.00 | 31 | 1023.4 |
| 20260509115328 | 65 | 140 | 3.0 | 6.0 | 0.00 | 0.00 | 0.00 | 32 | 1023.4 |
| 20260509114828 | 64 | 46 | 2.0 | 10.0 | 0.00 | 0.00 | 0.00 | 28 | 1023.5 |
| 20260509114328 | 64 | 155 | 2.0 | 10.0 | 0.00 | 0.00 | 0.00 | 26 | 1023.7 |
| 20260509113828 | 64 | 184 | 3.0 | 7.0 | 0.00 | 0.00 | 0.00 | 28 | 1023.7 |
| 20260509113330 | 65 | 193 | 3.0 | 10.0 | 0.00 | 0.00 | 0.00 | 28 | 1023.8 |
| 20260509112830 | 64 | 126 | 0.0 | 10.0 | 0.00 | 0.00 | 0.00 | 26 | 1023.8 |
| 20260509112330 | 64 | 285 | 3.0 | 9.0 | 0.00 | 0.00 | 0.00 | 28 | 1023.9 |
| 20260509111839 | 64 | 130 | 5.0 | 9.0 | 0.00 | 0.00 | 0.00 | 27 | 1023.9 |
| 20260509111329 | 64 | 138 | 4.0 | 9.0 | 0.00 | 0.00 | 0.00 | 31 | 1023.9 |
| 20260509110829 | 65 | 117 | 6.0 | 9.0 | 0.00 | 0.00 | 0.00 | 27 | 1023.9 |
| 20260509110330 | 65 | 155 | 4.0 | 8.0 | 0.00 | 0.00 | 0.00 | 26 | 1024.1 |
| 20260509105850 | 65 | 305 | 2.0 | 7.0 | 0.00 | 0.00 | 0.00 | 31 | 1024.1 |
| 20260509105338 | 64 | 318 | 3.0 | 7.0 | 0.00 | 0.00 | 0.00 | 27 | 1024.2 |
| 20260509104846 | 64 | 165 | 1.0 | 9.0 | 0.00 | 0.00 | 0.00 | 30 | 1024.3 |
| 20260509104334 | 63 | 95 | 2.0 | 12.0 | 0.00 | 0.00 | 0.00 | 33 | 1024.4 |
| 20260509103901 | 63 | 140 | 5.0 | 12.0 | 0.00 | 0.00 | 0.00 | 32 | 1024.4 |
| 20260509103328 | 64 | 159 | 2.0 | 10.0 | 0.00 | 0.00 | 0.00 | 28 | 1024.5 |
| 20260509102829 | 64 | 164 | 6.0 | 17.0 | 0.00 | 0.00 | 0.00 | 32 | 1024.5 |
| 20260509102328 | 64 | 121 | 10.0 | 17.0 | 0.00 | 0.00 | 0.00 | 31 | 1024.5 |
| 20260509101830 | 63 | 360 | 1.0 | 8.0 | 0.00 | 0.00 | 0.00 | 34 | 1024.6 |
| 20260509101328 | 63 | 111 | 4.0 | 13.0 | 0.00 | 0.00 | 0.00 | 35 | 1024.6 |
| 20260509100828 | 63 | 28 | 2.0 | 13.0 | 0.00 | 0.00 | 0.00 | 33 | 1024.7 |
| 20260509100350 | 63 | 166 | 5.0 | 11.0 | 0.00 | 0.00 | 0.00 | 33 | 1024.7 |
| 20260509095850 | 63 | 105 | 2.0 | 9.0 | 0.00 | 0.00 | 0.00 | 36 | 1024.7 |
| 20260509095350 | 63 | 106 | 5.0 | 8.0 | 0.00 | 0.00 | 0.00 | 37 | 1024.7 |
| 20260509094829 | 63 | 154 | 4.0 | 9.0 | 0.00 | 0.00 | 0.00 | 33 | 1024.7 |
| 20260509094349 | 62 | 105 | 1.0 | 10.0 | 0.00 | 0.00 | 0.00 | 33 | 1024.8 |
| 20260509093829 | 62 | 167 | 3.0 | 10.0 | 0.00 | 0.00 | 0.00 | 38 | 1024.9 |
| 20260509093325 | 62 | 141 | 2.0 | 18.0 | 0.00 | 0.00 | 0.00 | 35 | 1024.9 |
| 20260509092825 | 61 | 155 | 7.0 | 18.0 | 0.00 | 0.00 | 0.00 | 33 | 1024.9 |
| 20260509092326 | 62 | 330 | 4.0 | 10.0 | 0.00 | 0.00 | 0.00 | 38 | 1025.0 |
| 20260509091826 | 62 | 111 | 3.0 | 6.0 | 0.00 | 0.00 | 0.00 | 37 | 1025.1 |
| 20260509091327 | 63 | 156 | 3.0 | 6.0 | 0.00 | 0.00 | 0.00 | 38 | 1025.2 |
| 20260509090826 | 63 | 83 | 3.0 | 6.0 | 0.00 | 0.00 | 0.00 | 37 | 1025.2 |
| 20260509090327 | 62 | 142 | 3.0 | 7.0 | 0.00 | 0.00 | 0.00 | 38 | 1025.3 |
| 20260509085827 | 61 | 38 | 1.0 | 9.0 | 0.00 | 0.00 | 0.00 | 38 | 1025.3 |
| 20260509085348 | 62 | 114 | 5.0 | 9.0 | 0.00 | 0.00 | 0.00 | 39 | 1025.3 |
| 20260509084828 | 61 | 157 | 3.0 | 10.0 | 0.00 | 0.00 | 0.00 | 35 | 1025.3 |
| 20260509084335 | 61 | 88 | 4.0 | 10.0 | 0.00 | 0.00 | 0.00 | 35 | 1025.3 |
| 20260509083824 | 60 | 107 | 2.0 | 7.0 | 0.00 | 0.00 | 0.00 | 35 | 1025.3 |
| 20260509083333 | 60 | 218 | 4.0 | 11.0 | 0.00 | 0.00 | 0.00 | 32 | 1025.4 |
| 20260509082841 | 60 | 175 | 5.0 | 11.0 | 0.00 | 0.00 | 0.00 | 34 | 1025.4 |
| 20260509082328 | 60 | 92 | 4.0 | 8.0 | 0.00 | 0.00 | 0.00 | 35 | 1025.4 |
| 20260509081828 | 60 | 157 | 5.0 | 10.0 | 0.00 | 0.00 | 0.00 | 34 | 1025.5 |
| 20260509081327 | 60 | 131 | 5.0 | 10.0 | 0.00 | 0.00 | 0.00 | 35 | 1025.4 |
| 20260509080835 | 60 | 113 | 6.0 | 10.0 | 0.00 | 0.00 | 0.00 | 37 | 1025.4 |
| 20260509080343 | 59 | 150 | 5.0 | 12.0 | 0.00 | 0.00 | 0.00 | 37 | 1025.5 |
| 20260509075831 | 59 | 92 | 5.0 | 12.0 | 0.00 | 0.00 | 0.00 | 36 | 1025.6 |
| 20260509075340 | 59 | 128 | 4.0 | 9.0 | 0.00 | 0.00 | 0.00 | 38 | 1025.6 |
| 20260509074849 | 60 | 159 | 2.0 | 8.0 | 0.00 | 0.00 | 0.00 | 40 | 1025.7 |
| 20260509074335 | 59 | 192 | 3.0 | 8.0 | 0.00 | 0.00 | 0.00 | 40 | 1025.7 |
| 20260509073825 | 59 | 147 | 5.0 | 8.0 | 0.00 | 0.00 | 0.00 | 39 | 1025.7 |
| 20260509073326 | 59 | 137 | 4.0 | 8.0 | 0.00 | 0.00 | 0.00 | 36 | 1025.7 |
| 20260509072826 | 58 | 198 | 3.0 | 5.0 | 0.00 | 0.00 | 0.00 | 41 | 1025.7 |
| 20260509072326 | 58 | 244 | 2.0 | 7.0 | 0.00 | 0.00 | 0.00 | 41 | 1025.7 |
| 20260509071826 | 57 | 199 | 1.0 | 7.0 | 0.00 | 0.00 | 0.00 | 40 | 1025.7 |
| 20260509071327 | 56 | 202 | 3.0 | 7.0 | 0.00 | 0.00 | 0.00 | 41 | 1025.7 |
| 20260509070828 | 56 | 194 | 3.0 | 7.0 | 0.00 | 0.00 | 0.00 | 46 | 1025.8 |
| 20260509070329 | 56 | 161 | 3.0 | 7.0 | 0.00 | 0.00 | 0.00 | 44 | 1025.8 |
| 20260509065849 | 55 | 130 | 2.0 | 7.0 | 0.00 | 0.00 | 0.00 | 48 | 1025.7 |
| 20260509065328 | 54 | 98 | 2.0 | 6.0 | 0.00 | 0.00 | 0.00 | 47 | 1025.7 |
| 20260509064830 | 54 | 111 | 3.0 | 6.0 | 0.00 | 0.00 | 0.00 | 48 | 1025.7 |
| 20260509064329 | 53 | 147 | 2.0 | 9.0 | 0.00 | 0.00 | 0.00 | 51 | 1025.7 |
| 20260509063829 | 52 | 141 | 5.0 | 9.0 | 0.00 | 0.00 | 0.00 | 50 | 1025.8 |
| 20260509063330 | 51 | 155 | 3.0 | 5.0 | 0.00 | 0.00 | 0.00 | 57 | 1025.9 |
| 20260509062829 | 50 | 159 | 2.0 | 3.0 | 0.00 | 0.00 | 0.00 | 59 | 1025.9 |
| 20260509062339 | 49 | 293 | 1.0 | 3.0 | 0.00 | 0.00 | 0.00 | 64 | 1025.9 |
| 20260509061828 | 48 | 293 | 1.0 | 3.0 | 0.00 | 0.00 | 0.00 | 63 | 1026.0 |
| 20260509061328 | 48 | 292 | 1.0 | 3.0 | 0.00 | 0.00 | 0.00 | 65 | 1026.0 |
| 20260509060857 | 47 | 293 | 1.0 | 2.0 | 0.00 | 0.00 | 0.00 | 68 | 1026.0 |
| 20260509060324 | 46 | 292 | 0.0 | 3.0 | 0.00 | 0.00 | 0.00 | 70 | 1026.0 |
| 20260509055831 | 45 | 293 | 1.0 | 3.0 | 0.00 | 0.00 | 0.00 | 72 | 1026.1 |
| 20260509055330 | 44 | 292 | 0.0 | 0.0 | 0.00 | 0.00 | 0.00 | 71 | 1026.1 |
| 20260509054851 | 44 | 292 | 0.0 | 1.0 | 0.00 | 0.00 | 0.00 | 72 | 1026.2 |
| 20260509054329 | 43 | 293 | 0.0 | 3.0 | 0.00 | 0.00 | 0.00 | 72 | 1026.2 |
| 20260509053839 | 43 | 292 | 1.0 | 3.0 | 0.00 | 0.00 | 0.00 | 74 | 1026.3 |
| 20260509053325 | 43 | 293 | 1.0 | 3.0 | 0.00 | 0.00 | 0.00 | 74 | 1026.2 |
| 20260509052831 | 42 | 293 | 1.0 | 3.0 | 0.00 | 0.00 | 0.00 | 75 | 1026.3 |
| 20260509052400 | 42 | 293 | 2.0 | 3.0 | 0.00 | 0.00 | 0.00 | 76 | 1026.3 |
| 20260509051825 | 41 | 292 | 2.0 | 3.0 | 0.00 | 0.00 | 0.00 | 77 | 1026.3 |
| 20260509051353 | 40 | 182 | 2.0 | 2.0 | 0.00 | 0.00 | 0.00 | 79 | 1026.3 |
| 20260509050837 | 40 | 180 | 0.0 | 0.0 | 0.00 | 0.00 | 0.00 | 80 | 1026.2 |
| 20260509050325 | 39 | 180 | 0.0 | 0.0 | 0.00 | 0.00 | 0.00 | 83 | 1026.2 |
| 20260509045831 | 38 | 180 | 0.0 | 0.0 | 0.00 | 0.00 | 0.00 | 84 | 1026.3 |
| 20260509045331 | 37 | 180 | 0.0 | 0.0 | 0.00 | 0.00 | 0.00 | 86 | 1026.2 |
| 20260509044831 | 37 | 180 | 0.0 | 0.0 | 0.00 | 0.00 | 0.00 | 87 | 1026.3 |
| 20260509044329 | 36 | 180 | 0.0 | 0.0 | 0.00 | 0.00 | 0.00 | 87 | 1026.3 |
| 20260509043838 | 36 | 180 | 0.0 | 0.0 | 0.00 | 0.00 | 0.00 | 86 | 1026.4 |
| 20260509043325 | 35 | 180 | 0.0 | 0.0 | 0.00 | 0.00 | 0.00 | 85 | 1026.4 |
| 20260509042833 | 35 | 180 | 0.0 | 0.0 | 0.00 | 0.00 | 0.00 | 84 | 1026.4 |
| 20260509042339 | 35 | 180 | 0.0 | 0.0 | 0.00 | 0.00 | 0.00 | 84 | 1026.5 |
| 20260509041849 | 34 | 180 | 0.0 | 2.0 | 0.00 | 0.00 | 0.00 | 85 | 1026.5 |
| 20260509041349 | 34 | 180 | 0.0 | 2.0 | 0.00 | 0.00 | 0.00 | 86 | 1026.5 |
| 20260509040828 | 33 | 180 | 0.0 | 1.0 | 0.00 | 0.00 | 0.00 | 86 | 1026.6 |
| 20260509040345 | 32 | 180 | 0.0 | 0.0 | 0.00 | 0.00 | 0.00 | 86 | 1026.6 |
| 20260509035824 | 32 | 180 | 0.0 | 2.0 | 0.00 | 0.00 | 0.00 | 87 | 1026.6 |
| 20260509035325 | 32 | 180 | 0.0 | 2.0 | 0.00 | 0.00 | 0.00 | 87 | 1026.6 |
| 20260509034846 | 32 | 180 | 0.0 | 2.0 | 0.00 | 0.00 | 0.00 | 86 | 1026.7 |
| 20260509034326 | 32 | 180 | 0.0 | 2.0 | 0.00 | 0.00 | 0.00 | 85 | 1026.7 |
| 20260509033835 | 31 | 180 | 0.0 | 2.0 | 0.00 | 0.00 | 0.00 | 85 | 1026.8 |
| 20260509033325 | 31 | 180 | 0.0 | 2.0 | 0.00 | 0.00 | 0.00 | 84 | 1026.8 |
| 20260509032825 | 31 | 180 | 0.0 | 1.0 | 0.00 | 0.00 | 0.00 | 84 | 1026.7 |
| 20260509032326 | 32 | 180 | 0.0 | 0.0 | 0.00 | 0.00 | 0.00 | 84 | 1026.7 |
| 20260509031834 | 32 | 180 | 0.0 | 0.0 | 0.00 | 0.00 | 0.00 | 84 | 1026.7 |
| 20260509031401 | 32 | 180 | 0.0 | 0.0 | 0.00 | 0.00 | 0.00 | 84 | 1026.7 |
| 20260509030827 | 32 | 180 | 0.0 | 2.0 | 0.00 | 0.00 | 0.00 | 84 | 1026.7 |
| 20260509030334 | 32 | 180 | 0.0 | 2.0 | 0.00 | 0.00 | 0.00 | 85 | 1026.6 |
| 20260509025840 | 32 | 180 | 1.0 | 2.0 | 0.00 | 0.00 | 0.00 | 89 | 1026.6 |
| 20260509025328 | 32 | 180 | 0.0 | 1.0 | 0.00 | 0.00 | 0.00 | 82 | 1026.6 |
| 20260509024826 | 33 | 180 | 0.0 | 1.0 | 0.00 | 0.00 | 0.00 | 82 | 1026.7 |
| 20260509024326 | 33 | 180 | 0.0 | 1.0 | 0.00 | 0.00 | 0.00 | 82 | 1026.7 |
| 20260509023827 | 33 | 180 | 1.0 | 1.0 | 0.00 | 0.00 | 0.00 | 81 | 1026.7 |
| 20260509023326 | 33 | 180 | 0.0 | 1.0 | 0.00 | 0.00 | 0.00 | 80 | 1026.7 |
| 20260509022826 | 33 | 180 | 0.0 | 1.0 | 0.00 | 0.00 | 0.00 | 80 | 1026.7 |
| 20260509022326 | 33 | 180 | 0.0 | 1.0 | 0.00 | 0.00 | 0.00 | 79 | 1026.8 |
| 20260509021847 | 33 | 180 | 0.0 | 1.0 | 0.00 | 0.00 | 0.00 | 80 | 1026.8 |
| 20260509021327 | 34 | 180 | 0.0 | 1.0 | 0.00 | 0.00 | 0.00 | 79 | 1026.8 |
| 20260509020828 | 34 | 180 | 0.0 | 2.0 | 0.00 | 0.00 | 0.00 | 78 | 1026.9 |
| 20260509020349 | 34 | 180 | 0.0 | 2.0 | 0.00 | 0.00 | 0.00 | 78 | 1026.9 |
| 20260509015828 | 34 | 180 | 1.0 | 2.0 | 0.00 | 0.00 | 0.00 | 79 | 1026.9 |
| 20260509015329 | 34 | 180 | 0.0 | 2.0 | 0.00 | 0.00 | 0.00 | 79 | 1026.9 |
| 20260509014850 | 34 | 180 | 1.0 | 2.0 | 0.00 | 0.00 | 0.00 | 81 | 1026.9 |
| 20260509014329 | 34 | 180 | 1.0 | 2.0 | 0.00 | 0.00 | 0.00 | 80 | 1026.8 |
| 20260509013830 | 34 | 180 | 1.0 | 2.0 | 0.00 | 0.00 | 0.00 | 80 | 1026.8 |
| 20260509013351 | 34 | 180 | 1.0 | 2.0 | 0.00 | 0.00 | 0.00 | 79 | 1026.9 |
| 20260509012831 | 35 | 180 | 1.0 | 2.0 | 0.00 | 0.00 | 0.00 | 78 | 1026.9 |
| 20260509012331 | 35 | 180 | 0.0 | 0.0 | 0.00 | 0.00 | 0.00 | 77 | 1026.9 |
| 20260509011851 | 35 | 180 | 0.0 | 1.0 | 0.00 | 0.00 | 0.00 | 76 | 1026.9 |
| 20260509011331 | 35 | 180 | 0.0 | 1.0 | 0.00 | 0.00 | 0.00 | 76 | 1026.9 |
| 20260509010831 | 35 | 180 | 0.0 | 0.0 | 0.00 | 0.00 | 0.00 | 76 | 1026.9 |
| 20260509010332 | 36 | 180 | 0.0 | 0.0 | 0.00 | 0.00 | 0.00 | 74 | 1026.8 |
| 20260509005832 | 36 | 180 | 0.0 | 1.0 | 0.00 | 0.00 | 0.00 | 75 | 1026.9 |
| 20260509005331 | 36 | 180 | 0.0 | 2.0 | 0.00 | 0.00 | 0.00 | 75 | 1026.9 |
| 20260509004831 | 36 | 180 | 1.0 | 2.0 | 0.00 | 0.00 | 0.00 | 75 | 1026.8 |
| 20260509004330 | 36 | 180 | 0.0 | 2.0 | 0.00 | 0.00 | 0.00 | 74 | 1026.9 |
| 20260509003831 | 36 | 180 | 0.0 | 2.0 | 0.00 | 0.00 | 0.00 | 73 | 1026.9 |
| 20260509003331 | 36 | 180 | 1.0 | 2.0 | 0.00 | 0.00 | 0.00 | 73 | 1026.9 |
| 20260509002832 | 37 | 180 | 0.0 | 1.0 | 0.00 | 0.00 | 0.00 | 71 | 1027.0 |
| 20260509002331 | 37 | 180 | 0.0 | 1.0 | 0.00 | 0.00 | 0.00 | 71 | 1027.0 |
| 20260509001831 | 37 | 180 | 1.0 | 1.0 | 0.00 | 0.00 | 0.00 | 70 | 1026.9 |
| 20260509001332 | 37 | 180 | 0.0 | 1.0 | 0.00 | 0.00 | 0.00 | 69 | 1026.9 |
| 20260509000832 | 38 | 180 | 0.0 | 0.0 | 0.00 | 0.00 | 0.00 | 69 | 1026.9 |
| 20260509000340 | 38 | 180 | 0.0 | 1.0 | 0.00 | 0.00 | 0.00 | 68 | 1026.9 |
| 20260508235827 | 38 | 180 | 0.0 | 2.0 | 0.00 | 0.00 | 0.00 | 68 | 1026.9 |
| 20260508235336 | 38 | 180 | 1.0 | 2.0 | 0.00 | 0.00 | 0.00 | 66 | 1026.9 |
| 20260508234825 | 39 | 180 | 0.0 | 1.0 | 0.00 | 0.00 | 0.00 | 64 | 1026.9 |
| 20260508234353 | 39 | 180 | 0.0 | 1.0 | 0.00 | 0.00 | 0.00 | 64 | 1026.9 |
| 20260508233831 | 39 | 180 | 0.0 | 2.0 | 0.00 | 0.00 | 0.00 | 62 | 1026.9 |
| 20260508233341 | 40 | 180 | 0.0 | 3.0 | 0.00 | 0.00 | 0.00 | 61 | 1026.9 |
| 20260508232828 | 40 | 195 | 0.0 | 2.0 | 0.00 | 0.00 | 0.00 | 59 | 1026.9 |
| 20260508232335 | 40 | 195 | 0.0 | 2.0 | 0.00 | 0.00 | 0.00 | 58 | 1026.9 |
| 20260508231824 | 41 | 194 | 0.0 | 1.0 | 0.00 | 0.00 | 0.00 | 59 | 1026.9 |
| 20260508231332 | 41 | 194 | 0.0 | 2.0 | 0.00 | 0.00 | 0.00 | 55 | 1026.9 |
| 20260508230830 | 42 | 194 | 0.0 | 2.0 | 0.00 | 0.00 | 0.00 | 54 | 1026.9 |
| 20260508230338 | 42 | 190 | 0.0 | 3.0 | 0.00 | 0.00 | 0.00 | 54 | 1026.9 |
| 20260508225824 | 42 | 190 | 0.0 | 4.0 | 0.00 | 0.00 | 0.00 | 54 | 1026.8 |
| 20260508225331 | 42 | 191 | 2.0 | 4.0 | 0.00 | 0.00 | 0.00 | 53 | 1026.8 |
| 20260508224849 | 42 | 205 | 2.0 | 5.0 | 0.00 | 0.00 | 0.00 | 52 | 1026.8 |
| 20260508224335 | 43 | 182 | 2.0 | 4.0 | 0.00 | 0.00 | 0.00 | 51 | 1026.8 |
| 20260508223824 | 43 | 181 | 2.0 | 4.0 | 0.00 | 0.00 | 0.00 | 51 | 1026.7 |
| 20260508223330 | 43 | 173 | 1.0 | 3.0 | 0.00 | 0.00 | 0.00 | 50 | 1026.8 |
| 20260508222836 | 43 | 168 | 1.0 | 2.0 | 0.00 | 0.00 | 0.00 | 49 | 1026.7 |
| 20260508222324 | 44 | 153 | 1.0 | 3.0 | 0.00 | 0.00 | 0.00 | 49 | 1026.7 |
| 20260508221830 | 44 | 153 | 1.0 | 6.0 | 0.00 | 0.00 | 0.00 | 49 | 1026.7 |
| 20260508221330 | 44 | 153 | 2.0 | 6.0 | 0.00 | 0.00 | 0.00 | 49 | 1026.8 |
| 20260508220858 | 45 | 193 | 0.0 | 4.0 | 0.00 | 0.00 | 0.00 | 49 | 1026.8 |
| 20260508220325 | 45 | 196 | 1.0 | 4.0 | 0.00 | 0.00 | 0.00 | 48 | 1026.8 |
| 20260508215832 | 45 | 136 | 2.0 | 6.0 | 0.00 | 0.00 | 0.00 | 47 | 1026.7 |
| 20260508215339 | 45 | 178 | 1.0 | 7.0 | 0.00 | 0.00 | 0.00 | 48 | 1026.7 |
| 20260508214847 | 45 | 150 | 2.0 | 8.0 | 0.00 | 0.00 | 0.00 | 46 | 1026.7 |
| 20260508214332 | 45 | 153 | 3.0 | 8.0 | 0.00 | 0.00 | 0.00 | 46 | 1026.7 |
| 20260508213829 | 45 | 185 | 2.0 | 8.0 | 0.00 | 0.00 | 0.00 | 46 | 1026.7 |
| 20260508213337 | 45 | 126 | 1.0 | 7.0 | 0.00 | 0.00 | 0.00 | 45 | 1026.6 |
| 20260508212824 | 46 | 144 | 2.0 | 7.0 | 0.00 | 0.00 | 0.00 | 45 | 1026.7 |
| 20260508212329 | 46 | 158 | 2.0 | 5.0 | 0.00 | 0.00 | 0.00 | 44 | 1026.6 |
| 20260508211831 | 46 | 132 | 3.0 | 5.0 | 0.00 | 0.00 | 0.00 | 45 | 1026.6 |
| 20260508211331 | 46 | 142 | 3.0 | 10.0 | 0.00 | 0.00 | 0.00 | 43 | 1026.5 |
| 20260508210832 | 46 | 178 | 4.0 | 10.0 | 0.00 | 0.00 | 0.00 | 42 | 1026.5 |
| 20260508210340 | 47 | 155 | 4.0 | 9.0 | 0.00 | 0.00 | 0.00 | 41 | 1026.4 |
| 20260508205829 | 47 | 122 | 4.0 | 9.0 | 0.00 | 0.00 | 0.00 | 41 | 1026.4 |
| 20260508205350 | 47 | 148 | 3.0 | 11.0 | 0.00 | 0.00 | 0.00 | 41 | 1026.3 |
| 20260508204829 | 47 | 144 | 5.0 | 11.0 | 0.00 | 0.00 | 0.00 | 40 | 1026.3 |
| 20260508204351 | 47 | 179 | 4.0 | 8.0 | 0.00 | 0.00 | 0.00 | 40 | 1026.2 |
| 20260508203829 | 47 | 133 | 4.0 | 8.0 | 0.00 | 0.00 | 0.00 | 39 | 1026.2 |
| 20260508203329 | 47 | 153 | 4.0 | 8.0 | 0.00 | 0.00 | 0.00 | 39 | 1026.2 |
| 20260508202831 | 47 | 126 | 4.0 | 7.0 | 0.00 | 0.00 | 0.00 | 39 | 1026.2 |
| 20260508202329 | 47 | 132 | 3.0 | 8.0 | 0.00 | 0.00 | 0.00 | 38 | 1026.3 |
| 20260508201829 | 48 | 134 | 3.0 | 8.0 | 0.00 | 0.00 | 0.00 | 39 | 1026.3 |
| 20260508201358 | 48 | 144 | 3.0 | 9.0 | 0.00 | 0.00 | 0.00 | 39 | 1026.3 |
| 20260508200846 | 48 | 159 | 4.0 | 9.0 | 0.00 | 0.00 | 0.00 | 37 | 1026.3 |
| 20260508200334 | 48 | 148 | 2.0 | 9.0 | 0.00 | 0.00 | 0.00 | 37 | 1026.2 |
| 20260508195837 | 48 | 164 | 5.0 | 8.0 | 0.00 | 0.00 | 0.00 | 36 | 1026.1 |
| 20260508195328 | 49 | 149 | 3.0 | 8.0 | 0.00 | 0.00 | 0.00 | 36 | 1026.1 |
| 20260508194844 | 49 | 165 | 3.0 | 8.0 | 0.00 | 0.00 | 0.00 | 36 | 1026.1 |
| 20260508194332 | 49 | 139 | 3.0 | 5.0 | 0.00 | 0.00 | 0.00 | 37 | 1026.1 |
| 20260508193824 | 49 | 175 | 2.0 | 6.0 | 0.00 | 0.00 | 0.00 | 35 | 1026.0 |
| 20260508193333 | 50 | 159 | 3.0 | 8.0 | 0.00 | 0.00 | 0.00 | 35 | 1026.0 |
| 20260508192839 | 50 | 135 | 3.0 | 8.0 | 0.00 | 0.00 | 0.00 | 34 | 1026.0 |
| 20260508192328 | 50 | 133 | 3.0 | 11.0 | 0.00 | 0.00 | 0.00 | 34 | 1026.0 |
| 20260508191856 | 50 | 131 | 4.0 | 11.0 | 0.00 | 0.00 | 0.00 | 33 | 1026.0 |
| 20260508191324 | 51 | 160 | 5.0 | 10.0 | 0.00 | 0.00 | 0.00 | 33 | 1025.9 |
| 20260508190852 | 51 | 144 | 4.0 | 9.0 | 0.00 | 0.00 | 0.00 | 34 | 1025.9 |
| 20260508190348 | 51 | 172 | 5.0 | 9.0 | 0.00 | 0.00 | 0.00 | 34 | 1025.9 |
| 20260508185827 | 51 | 142 | 4.0 | 9.0 | 0.00 | 0.00 | 0.00 | 34 | 1025.9 |
| 20260508185325 | 52 | 136 | 3.0 | 8.0 | 0.00 | 0.00 | 0.00 | 34 | 1025.9 |
| 20260508184833 | 52 | 171 | 4.0 | 8.0 | 0.00 | 0.00 | 0.00 | 34 | 1025.9 |
| 20260508184359 | 52 | 155 | 4.0 | 9.0 | 0.00 | 0.00 | 0.00 | 35 | 1025.9 |
| 20260508183824 | 53 | 171 | 3.0 | 9.0 | 0.00 | 0.00 | 0.00 | 35 | 1025.9 |
| 20260508183355 | 53 | 153 | 4.0 | 9.0 | 0.00 | 0.00 | 0.00 | 36 | 1025.8 |
| 20260508182840 | 53 | 148 | 6.0 | 9.0 | 0.00 | 0.00 | 0.00 | 36 | 1025.8 |
| 20260508182326 | 53 | 137 | 4.0 | 9.0 | 0.00 | 0.00 | 0.00 | 38 | 1025.7 |
| 20260508181827 | 54 | 136 | 2.0 | 11.0 | 0.00 | 0.00 | 0.00 | 38 | 1025.7 |
| 20260508181325 | 54 | 191 | 3.0 | 6.0 | 0.00 | 0.00 | 0.00 | 37 | 1025.7 |
| 20260508180826 | 54 | 133 | 3.0 | 6.0 | 0.00 | 0.00 | 0.00 | 36 | 1025.6 |
| 20260508180326 | 55 | 182 | 3.0 | 6.0 | 0.00 | 0.00 | 0.00 | 35 | 1025.6 |
| 20260508175824 | 55 | 180 | 2.0 | 10.0 | 0.00 | 0.00 | 0.00 | 35 | 1025.5 |
| 20260508175333 | 55 | 149 | 4.0 | 10.0 | 0.00 | 0.00 | 0.00 | 33 | 1025.4 |
| 20260508174841 | 55 | 188 | 3.0 | 10.0 | 0.00 | 0.00 | 0.00 | 33 | 1025.3 |
| 20260508174328 | 55 | 155 | 3.0 | 10.0 | 0.00 | 0.00 | 0.00 | 32 | 1025.3 |
| 20260508173836 | 56 | 127 | 5.0 | 14.0 | 0.00 | 0.00 | 0.00 | 30 | 1025.3 |
| 20260508173325 | 56 | 126 | 8.0 | 14.0 | 0.00 | 0.00 | 0.00 | 32 | 1025.3 |
| 20260508172825 | 56 | 144 | 7.0 | 14.0 | 0.00 | 0.00 | 0.00 | 31 | 1025.4 |
| 20260508172326 | 56 | 148 | 5.0 | 14.0 | 0.00 | 0.00 | 0.00 | 30 | 1025.3 |
| 20260508171825 | 56 | 160 | 6.0 | 11.0 | 0.00 | 0.00 | 0.00 | 31 | 1025.3 |
| 20260508171325 | 57 | 156 | 5.0 | 9.0 | 0.00 | 0.00 | 0.00 | 30 | 1025.3 |
| 20260508170825 | 57 | 144 | 4.0 | 12.0 | 0.00 | 0.00 | 0.00 | 31 | 1025.3 |
| 20260508170327 | 57 | 144 | 4.0 | 15.0 | 0.00 | 0.00 | 0.00 | 31 | 1025.4 |
| 20260508165828 | 57 | 198 | 5.0 | 15.0 | 0.00 | 0.00 | 0.00 | 30 | 1025.3 |
| 20260508165336 | 57 | 196 | 7.0 | 12.0 | 0.00 | 0.00 | 0.00 | 29 | 1025.3 |
| 20260508164825 | 58 | 169 | 8.0 | 18.0 | 0.00 | 0.00 | 0.00 | 29 | 1025.2 |
| 20260508164345 | 58 | 146 | 6.0 | 18.0 | 0.00 | 0.00 | 0.00 | 29 | 1025.2 |
| 20260508163825 | 58 | 153 | 7.0 | 15.0 | 0.00 | 0.00 | 0.00 | 30 | 1025.2 |
| 20260508163325 | 58 | 147 | 7.0 | 15.0 | 0.00 | 0.00 | 0.00 | 29 | 1025.1 |
| 20260508162826 | 58 | 172 | 9.0 | 19.0 | 0.00 | 0.00 | 0.00 | 29 | 1025.1 |
| 20260508162327 | 59 | 121 | 8.0 | 12.0 | 0.00 | 0.00 | 0.00 | 28 | 1025.1 |
| 20260508161835 | 59 | 146 | 7.0 | 14.0 | 0.00 | 0.00 | 0.00 | 29 | 1025.1 |
| 20260508161324 | 59 | 146 | 5.0 | 10.0 | 0.00 | 0.00 | 0.00 | 28 | 1025.1 |
| 20260508160824 | 59 | 190 | 8.0 | 13.0 | 0.00 | 0.00 | 0.00 | 28 | 1025.0 |
| 20260508160333 | 59 | 164 | 5.0 | 13.0 | 0.00 | 0.00 | 0.00 | 30 | 1025.0 |
| 20260508155840 | 59 | 142 | 8.0 | 14.0 | 0.00 | 0.00 | 0.00 | 28 | 1025.0 |